Location: Caetano Furquim
(19.9043°S, 43.8884°W)
Time: 16:43:53
(UTC+00:00)

Daily predictions for brighter satellites

Satellite Brightness Start Highest point End
(mag) Time Altitude Azimuth Time Altitude Azimuth Time Altitude Azimuth
Cosmos 1805 4.5 21:07:13 10° SSE 21:10:16 22° E 21:13:16 10° NE
Cosmos 1975 2.9 21:07:54 10° S 21:11:58 85° W 21:16:01 10° N
Landsat 5 4.4 21:09:56 10° NE 21:13:43 29° ESE 21:17:27 10° SSE
Cosmos 2034 Rocket 4.5 21:08:35 10° NNE 21:14:19 38° E 21:20:03 10° SSE
DASH 4.2 21:13:25 10° WSW 21:16:37 38° S 21:27:11 10° ESE
SL-08 RB Rocket 3.6 21:18:27 10° SSE 21:22:56 69° E 21:27:24 10° N
H-2A R/B 3.9 21:18:52 10° S 21:23:17 34° WSW 21:27:42 10° NW
Okean 1-7 3.6 21:24:14 10° NNE 21:28:04 34° E 21:31:58 10° SSE
YAOGAN 1 4.2 21:26:03 10° ESE 21:28:05 13° E 21:30:04 10° NE
Cosmos 1741 Rocket 4.0 21:23:38 10° S 21:29:00 78° ESE 21:34:17 10° NNE
ATLAS 3B CENTAUR R/B 2.1 21:27:38 10° SW 21:29:08 17° S 21:30:56 10° SE
USA 276 1.9 21:31:53 10° NNW 21:34:49 61° NE 21:37:36 11° SE
Cosmos 1242 Rocket 2.4 21:33:29 10° S 21:37:02 83° E 21:40:35 10° N
Meteor 1-23 Rocket 4.3 21:32:07 10° N 21:37:35 54° E 21:43:03 10° SSE
CZ-4C R/B 4.2 21:36:50 17° ENE 21:38:01 21° ESE 21:40:37 10° SSE
CZ-4B R/B 4.4 21:35:52 10° S 21:39:51 43° WSW 21:43:59 10° NNW
PAYLOAD B 4.4 21:45:13 10° SSE 21:50:40 51° ENE 21:56:03 10° N
Genesis I 3.5 21:49:40 10° N 21:53:06 36° ENE 21:54:15 28° ESE
Cosmos 2360 Rocket 3.8 21:50:11 10° SSE 21:52:58 15° ESE 21:52:58 15° ESE
H-2A DEB 4.1 21:52:35 10° WSW 21:55:24 49° SSE 21:56:08 35° ESE
GPS 2-18 Rocket1 2.8 21:53:50 10° WNW 21:57:24 80° N 21:58:37 39° E
COSMOS 2487 2.0 21:54:41 10° NNW 21:57:34 76° WSW 22:00:28 10° S
Atlas Centaur 2 3.3 21:52:47 10° SW 21:57:50 35° SSE 22:01:36 20° ESE
CZ-4 R/B 4.4 21:53:43 10° SSE 21:57:54 88° E 22:02:01 10° NNW
Aurora 2 Rocket 3.9 21:58:18 10° NNW 22:00:21 16° NNE 22:00:21 16° NNE
Meteor 2-10 4.4 21:58:16 10° S 22:03:54 77° W 22:09:35 10° N
Cosmos 1634 Rocket 4.2 21:58:26 10° NNE 22:04:19 46° E 22:10:17 10° SSE
SAR-Lupe-3 4.5 22:00:55 10° SSE 22:04:33 88° W 22:08:07 10° NNW
CZ-4B R/B 3.2 22:02:53 10° SSE 22:08:04 49° ENE 22:13:08 10° N
Cosmos 1437 Rocket 4.1 22:07:21 10° SSE 22:09:32 25° SE 22:09:32 25° SE
Lacrosse 4 Rocket 3.0 22:07:53 10° S 22:09:40 19° SSE 22:09:40 19° SSE
Cosmos 1733 Rocket 4.5 22:08:38 10° SSW 22:12:43 39° W 22:16:47 10° NNW
Meteor 1-15 Rocket 4.3 22:09:27 10° S 22:15:14 59° E 22:19:21 19° NNE
Cosmos 2322 Rocket 2.5 22:10:19 10° S 22:15:42 43° ESE 22:16:35 40° E
Lacrosse 5 rocket 1.6 22:15:54 10° NNW 22:18:27 43° N 22:18:27 43° N
Delta 168 4.4 22:09:56 10° WNW 22:20:01 89° NNE 22:23:17 36° ESE
H-2A DEB 3.5 22:18:38 10° WSW 22:20:53 64° WSW 22:20:53 64° WSW
Okean O Rocket 3.8 22:20:13 10° SSE 22:30:39 - N 22:20:45 13° SSE
Delta 7925 Rocket 3.4 22:20:20 10° WSW 22:25:01 66° SSE 22:25:48 56° ESE
Geosat 4.5 22:35:09 44° SSE 22:35:09 44° SSE 22:39:04 10° S
Cosmos 2026 Rocket 4.2 22:29:29 10° S 22:34:48 48° ESE 22:34:48 48° ESE
Cosmos 1726 4.1 22:34:22 10° SSW 22:37:29 28° W 22:40:36 10° NNW
COSMOS 2455 4.4 22:33:32 10° S 22:36:04 20° SSE 22:36:04 20° SSE
SL-16 R/B 2.4 22:33:11 10° SSW 22:38:50 69° WNW 22:41:34 31° N
Nadezhda 4 Rocket 4.5 22:34:30 10° SSW 22:40:39 60° W 22:46:50 10° N
Cosmos 1707 4.0 22:38:06 10° NNW 22:42:42 38° SW 22:45:31 10° S
SWIFT 4.1 22:40:51 10° WNW 22:43:39 24° NW 22:43:39 24° NW
DNEPR-1 R/B 4.1 22:40:47 10° SSW 22:44:47 55° W 22:44:47 55° W
Cosmos 968 Rocket 4.5 22:47:51 10° SSW 22:52:50 45° W 22:55:06 28° NNW
Tiangong 1.2 22:50:03 10° SW 22:50:13 11° SW 22:50:13 11° SW
Cosmos 2333 Rocket 4.0 22:48:55 10° S 22:50:38 19° SSE 22:50:38 19° SSE
ATLAS 3B R/B 4.1 22:49:16 10° N 22:52:31 27° N 22:52:31 27° N
YAOGAN 1 4.4 23:00:14 10° SSW 23:04:03 30° WSW 23:07:49 10° NW
Centaur D AC-29 4.4 13:14:38 10° NW 23:07:56 75° NNW 23:15:18 45° NE
Cosmos 1092 Rocket 4.3 23:04:54 10° SSW 23:11:10 63° W 23:11:48 59° WNW
Milstar 3 2.9 23:07:17 10° WSW 23:13:23 68° SSW 23:13:23 68° SSW
Cosmos 2344 4.3 23:04:38 10° SSW 23:17:22 62° ESE 23:17:22 62° ESE
Cosmos 2360 Rocket 4.0 23:32:05 10° SSW 23:34:48 27° SW 23:34:48 27° SW
Atlas Centaur 2 4.0 23:41:04 10° WSW 23:44:07 32° SW 23:44:07 32° SW
